OCO133S EBOS-EHAM

Flight info

Callsign OCO133S
Flight time 0h 36m
Altitude 7000
Route COA DCT DENUT
Aircraft DA62/L-SDFGRY/C

Departure

Time 2026-05-07 19:53
Airport Ostend-Bruges International Airport (EBOS)

Arrival

Time 2026-05-07 20:30
Airport Amsterdam Airport Schiphol (EHAM)
Time Latitude Longitude Altitude Speed Heading
2026-05-07 19:25 51.19955 2.85616 10 ft 0 kts 232°
2026-05-07 19:46 51.19906 2.85626 10 ft 9 kts 207°
2026-05-07 19:46 51.19861 2.85538 10 ft 16 kts 260°
2026-05-07 19:47 51.19826 2.85337 10 ft 17 kts 233°
2026-05-07 19:47 51.19763 2.85256 10 ft 0 kts 197°
2026-05-07 19:50 51.19742 2.85252 10 ft 12 kts 176°
2026-05-07 19:50 51.19684 2.85277 10 ft 4 kts 157°
2026-05-07 19:50 51.19677 2.85283 10 ft 5 kts 147°
2026-05-07 19:50 51.19667 2.85351 10 ft 0 kts 75°
2026-05-07 19:52 51.19692 2.85516 10 ft 47 kts 75°
2026-05-07 19:52 51.19812 2.86326 10 ft 98 kts 77°
2026-05-07 19:52 51.19931 2.87100 83 ft 111 kts 76°
2026-05-07 19:53 51.20194 2.88705 462 ft 114 kts 74°
2026-05-07 19:53 51.20330 2.89524 681 ft 112 kts 76°
2026-05-07 19:53 51.20493 2.90739 954 ft 117 kts 78°
2026-05-07 19:53 51.20699 2.92061 1004 ft 131 kts 75°
2026-05-07 19:54 51.20910 2.93507 1102 ft 136 kts 78°
2026-05-07 19:54 51.21120 2.95005 1187 ft 137 kts 78°
2026-05-07 19:54 51.21337 2.96488 1294 ft 138 kts 77°
2026-05-07 19:54 51.21619 2.97944 1390 ft 139 kts 58°
2026-05-07 19:55 51.22315 2.99024 1491 ft 140 kts 44°
2026-05-07 19:55 51.23000 3.00070 1593 ft 134 kts 46°
2026-05-07 19:55 51.23647 3.01093 1696 ft 132 kts 48°
2026-05-07 19:55 51.24300 3.02144 1820 ft 129 kts 48°
2026-05-07 19:56 51.24912 3.03134 2068 ft 121 kts 48°
2026-05-07 19:56 51.25494 3.04077 2313 ft 117 kts 48°
2026-05-07 19:56 51.26059 3.04994 2564 ft 115 kts 50°
2026-05-07 19:56 51.26610 3.05891 2803 ft 116 kts 50°
2026-05-07 19:57 51.27200 3.06848 2955 ft 125 kts 48°
2026-05-07 19:57 51.27826 3.07866 3116 ft 131 kts 49°
2026-05-07 19:57 51.28474 3.08919 3281 ft 134 kts 49°
2026-05-07 19:57 51.29137 3.09997 3439 ft 137 kts 49°
2026-05-07 19:58 51.29810 3.11092 3599 ft 139 kts 49°
2026-05-07 19:58 51.30490 3.12199 3749 ft 140 kts 49°
2026-05-07 19:58 51.31171 3.13308 3904 ft 140 kts 49°
2026-05-07 19:58 51.31856 3.14425 4061 ft 141 kts 49°
2026-05-07 19:59 51.32542 3.15542 4218 ft 141 kts 48°
2026-05-07 19:59 51.33231 3.16666 4373 ft 142 kts 49°
2026-05-07 19:59 51.33924 3.17800 4537 ft 143 kts 48°
2026-05-07 19:59 51.34623 3.18940 4689 ft 144 kts 49°
2026-05-07 20:00 51.35324 3.20085 4846 ft 144 kts 49°
2026-05-07 20:00 51.36027 3.21233 5002 ft 145 kts 48°
2026-05-07 20:00 51.36729 3.22381 5171 ft 143 kts 47°
2026-05-07 20:00 51.37422 3.23514 5376 ft 142 kts 47°
2026-05-07 20:01 51.38110 3.24640 5568 ft 141 kts 47°
2026-05-07 20:01 51.38805 3.25779 5772 ft 147 kts 47°
2026-05-07 20:01 51.39540 3.26984 5984 ft 155 kts 47°
2026-05-07 20:01 51.40304 3.28237 6199 ft 160 kts 47°
2026-05-07 20:02 51.41089 3.29524 6415 ft 163 kts 47°
2026-05-07 20:02 51.41890 3.30837 6627 ft 166 kts 46°
2026-05-07 20:02 51.42700 3.32166 6826 ft 167 kts 46°
2026-05-07 20:02 51.43516 3.33506 7027 ft 169 kts 46°
2026-05-07 20:03 51.44357 3.34889 7073 ft 178 kts 46°
2026-05-07 20:03 51.45228 3.36322 7082 ft 185 kts 46°
2026-05-07 20:03 51.46137 3.37816 7083 ft 189 kts 46°
2026-05-07 20:03 51.47072 3.39356 7082 ft 191 kts 46°
2026-05-07 20:04 51.48001 3.40887 7084 ft 192 kts 46°
2026-05-07 20:04 51.48935 3.42425 7080 ft 193 kts 46°
2026-05-07 20:04 51.49870 3.43967 7082 ft 193 kts 46°
2026-05-07 20:04 51.50793 3.45491 7083 ft 193 kts 46°
2026-05-07 20:05 51.51728 3.47035 7086 ft 193 kts 46°
2026-05-07 20:05 51.52663 3.48582 7079 ft 193 kts 46°
2026-05-07 20:05 51.53599 3.50128 7079 ft 194 kts 46°
2026-05-07 20:05 51.54545 3.51697 7084 ft 197 kts 46°
2026-05-07 20:06 51.55503 3.53286 7081 ft 199 kts 46°
2026-05-07 20:06 51.56468 3.54884 7080 ft 199 kts 46°
2026-05-07 20:06 51.57433 3.56483 7088 ft 200 kts 46°
2026-05-07 20:06 51.58400 3.58087 7084 ft 200 kts 46°
2026-05-07 20:07 51.59367 3.59692 7080 ft 200 kts 46°
2026-05-07 20:07 51.60334 3.61298 7079 ft 200 kts 46°
2026-05-07 20:07 51.61300 3.62905 7082 ft 200 kts 46°
2026-05-07 20:07 51.62267 3.64513 7083 ft 200 kts 46°
2026-05-07 20:08 51.63233 3.66120 7080 ft 200 kts 46°
2026-05-07 20:08 51.64198 3.67728 7082 ft 199 kts 46°
2026-05-07 20:08 51.65162 3.69333 7090 ft 200 kts 46°
2026-05-07 20:08 51.66126 3.70942 7086 ft 200 kts 46°
2026-05-07 20:09 51.67091 3.72551 7086 ft 200 kts 46°
2026-05-07 20:09 51.68054 3.74159 7082 ft 199 kts 46°
2026-05-07 20:09 51.69016 3.75768 7083 ft 199 kts 46°
2026-05-07 20:10 51.70916 3.79019 7082 ft 199 kts 46°
2026-05-07 20:10 51.71878 3.80626 7081 ft 199 kts 46°
2026-05-07 20:10 51.72840 3.82230 7080 ft 199 kts 46°
2026-05-07 20:10 51.73801 3.83838 7078 ft 199 kts 46°
2026-05-07 20:11 51.74748 3.85424 7082 ft 199 kts 47°
2026-05-07 20:11 51.75709 3.87033 7079 ft 199 kts 46°
2026-05-07 20:11 51.76668 3.88641 7081 ft 199 kts 47°
2026-05-07 20:11 51.77628 3.90251 7083 ft 199 kts 47°
2026-05-07 20:12 51.78586 3.91859 7084 ft 199 kts 47°
2026-05-07 20:12 51.79545 3.93469 7086 ft 199 kts 47°
2026-05-07 20:12 51.80505 3.95082 7084 ft 199 kts 47°
2026-05-07 20:12 51.81465 3.96696 7084 ft 199 kts 47°
2026-05-07 20:13 51.82425 3.98312 7084 ft 199 kts 47°
2026-05-07 20:13 51.83385 3.99927 7083 ft 199 kts 47°
2026-05-07 20:13 51.84344 4.01544 7090 ft 199 kts 47°
2026-05-07 20:13 51.85302 4.03159 7083 ft 199 kts 47°
2026-05-07 20:14 51.86260 4.04776 7087 ft 199 kts 47°
2026-05-07 20:14 51.87220 4.06395 7082 ft 199 kts 47°
2026-05-07 20:14 51.88179 4.08017 7082 ft 199 kts 47°
2026-05-07 20:14 51.89139 4.09639 7082 ft 199 kts 47°
2026-05-07 20:15 51.90097 4.11261 7087 ft 199 kts 47°
2026-05-07 20:15 51.91056 4.12884 7082 ft 199 kts 47°
2026-05-07 20:15 51.92016 4.14508 7081 ft 200 kts 47°
2026-05-07 20:15 51.92974 4.16133 7092 ft 200 kts 47°
2026-05-07 20:16 51.93933 4.17759 7081 ft 199 kts 47°
2026-05-07 20:16 51.94891 4.19385 7080 ft 199 kts 47°
2026-05-07 20:16 51.95849 4.21012 7087 ft 200 kts 47°
2026-05-07 20:16 51.96809 4.22643 7078 ft 200 kts 47°
2026-05-07 20:17 51.97768 4.24275 7088 ft 200 kts 47°
2026-05-07 20:17 51.98727 4.25906 7079 ft 200 kts 47°
2026-05-07 20:17 51.99672 4.27514 7088 ft 200 kts 47°
2026-05-07 20:17 52.00629 4.29146 7076 ft 199 kts 47°
2026-05-07 20:18 52.01585 4.30777 7086 ft 200 kts 47°
2026-05-07 20:18 52.02542 4.32410 7086 ft 200 kts 47°
2026-05-07 20:18 52.03493 4.34032 7077 ft 199 kts 47°
2026-05-07 20:18 52.04163 4.35968 7070 ft 197 kts 75°
2026-05-07 20:19 52.04704 4.38008 7074 ft 197 kts 67°
2026-05-07 20:19 52.05246 4.40055 7080 ft 197 kts 68°
2026-05-07 20:19 52.05783 4.42111 7087 ft 198 kts 68°
2026-05-07 20:19 52.06319 4.44169 7082 ft 198 kts 68°
2026-05-07 20:20 52.06856 4.46232 7077 ft 198 kts 68°
2026-05-07 20:20 52.07393 4.48291 7093 ft 198 kts 68°
2026-05-07 20:20 52.07929 4.50351 7082 ft 198 kts 68°
2026-05-07 20:20 52.08465 4.52410 7077 ft 198 kts 68°
2026-05-07 20:21 52.09002 4.54474 7086 ft 198 kts 69°
2026-05-07 20:21 52.09537 4.56537 7083 ft 198 kts 69°
2026-05-07 20:21 52.10076 4.58602 7083 ft 198 kts 68°
2026-05-07 20:21 52.10613 4.60661 7079 ft 198 kts 68°
2026-05-07 20:22 52.11149 4.62721 7083 ft 198 kts 68°
2026-05-07 20:22 52.11691 4.64803 6980 ft 203 kts 68°
2026-05-07 20:22 52.12246 4.66935 6840 ft 206 kts 68°
2026-05-07 20:22 52.12808 4.69090 6690 ft 207 kts 68°
2026-05-07 20:23 52.13350 4.71160 6533 ft 175 kts 68°
2026-05-07 20:23 52.13773 4.72740 6335 ft 135 kts 68°
2026-05-07 20:23 52.14212 4.73951 6119 ft 117 kts 51°
2026-05-07 20:23 52.14748 4.74998 5649 ft 126 kts 53°
2026-05-07 20:24 52.15317 4.76114 5142 ft 129 kts 51°
2026-05-07 20:24 52.15905 4.77232 4632 ft 130 kts 48°
2026-05-07 20:24 52.16722 4.77746 4120 ft 132 kts 353°
2026-05-07 20:24 52.17542 4.77099 3625 ft 132 kts 332°
2026-05-07 20:25 52.18411 4.76857 3146 ft 127 kts
2026-05-07 20:25 52.19239 4.76871 2798 ft 117 kts
2026-05-07 20:25 52.20054 4.76922 2291 ft 117 kts
2026-05-07 20:25 52.20864 4.76975 1790 ft 116 kts
2026-05-07 20:26 52.21654 4.77048 1410 ft 104 kts
2026-05-07 20:26 52.22298 4.77110 1374 ft 87 kts
2026-05-07 20:26 52.22912 4.77167 1270 ft 95 kts
2026-05-07 20:26 52.23644 4.77236 1133 ft 112 kts
2026-05-07 20:27 52.24455 4.77310 964 ft 118 kts
2026-05-07 20:27 52.25198 4.77374 807 ft 98 kts
2026-05-07 20:27 52.25839 4.77431 675 ft 87 kts
2026-05-07 20:27 52.26410 4.77483 562 ft 80 kts
2026-05-07 20:28 52.26934 4.77538 464 ft 76 kts
2026-05-07 20:28 52.27480 4.77590 360 ft 80 kts
2026-05-07 20:28 52.28038 4.77643 250 ft 83 kts
2026-05-07 20:28 52.28620 4.77691 143 ft 83 kts
2026-05-07 20:29 52.29184 4.77734 88 ft 79 kts
2026-05-07 20:29 52.29701 4.77905 67 ft 74 kts 31°
2026-05-07 20:29 52.30106 4.78446 2 ft 77 kts 42°
2026-05-07 20:29 52.30496 4.79002 -15 ft 71 kts 42°
2026-05-07 20:30 52.30744 4.79358 -11 ft 29 kts 44°
2026-05-07 20:30 52.30870 4.79538 -12 ft 20 kts 41°
2026-05-07 20:30 52.30947 4.79645 -15 ft 12 kts 42°
2026-05-07 20:30 52.31031 4.79767 -14 ft 21 kts 41°
2026-05-07 20:31 52.31155 4.79945 -12 ft 22 kts 42°
2026-05-07 20:31 52.31146 4.80083 -12 ft 12 kts 134°
2026-05-07 20:31 52.31092 4.80178 -12 ft 11 kts 131°
2026-05-07 20:31 52.31045 4.80263 -12 ft 10 kts 133°
2026-05-07 20:32 52.31000 4.80345 -12 ft 9 kts 130°
2026-05-07 20:32 52.31017 4.80566 -12 ft 19 kts 77°
2026-05-07 20:32 52.31001 4.80665 -12 ft 4 kts 144°
2026-05-07 20:32 52.30975 4.80684 -12 ft 4 kts 173°
2026-05-07 20:33 52.30955 4.80657 -12 ft 4 kts 295°
2026-05-07 20:33 52.30957 4.80652 -12 ft 0 kts 275°
2026-05-07 20:33 52.30956 4.80646 -12 ft 0 kts 233°
2026-05-07 20:34 52.30991 4.80701 -12 ft 16 kts 207°
2026-05-07 20:34 52.30965 4.80647 -12 ft 0 kts 345°
2026-05-07 20:34 52.30968 4.80650 -12 ft 0 kts 78°
2026-05-07 20:34 52.30968 4.80652 -12 ft 0 kts 58°